| time (UTC) | temp F | wind direction | speed knots | gust knots | rain 1hr in | rain 24hr in | rain mn in | humidity % | barometer mb |
| 20260906214422 | 89 | 9 | 0.0 | 1.7 | 0.00 | 0.00 | 0.00 | 32 | 1014.3 |
| 20260906213922 | 90 | 183 | 0.0 | 2.6 | 0.00 | 0.00 | 0.00 | 31 | 1014.5 |
| 20260906213416 | 92 | 122 | 1.7 | 3.5 | 0.00 | 0.00 | 0.00 | 29 | 1014.6 |
| 20260906212914 | 92 | 180 | 0.9 | 3.5 | 0.00 | 0.00 | 0.00 | 29 | 1014.5 |
| 20260906212410 | 93 | 188 | 1.7 | 2.6 | 0.00 | 0.00 | 0.00 | 27 | 1014.6 |
| 20260906211909 | 94 | 197 | 3.5 | 5.2 | 0.00 | 0.00 | 0.00 | 27 | 1014.7 |
| 20260906211404 | 94 | 187 | 0.9 | 2.6 | 0.00 | 0.00 | 0.00 | 27 | 1014.6 |
| 20260906210859 | 93 | 18 | 2.6 | 4.3 | 0.00 | 0.00 | 0.00 | 28 | 1014.6 |
| 20260906210354 | 93 | 348 | 1.7 | 4.3 | 0.00 | 0.00 | 0.00 | 29 | 1014.8 |
| 20260906205849 | 92 | 195 | 1.7 | 2.6 | 0.00 | 0.00 | 0.00 | 30 | 1014.6 |
| 20260906205345 | 91 | 144 | 1.7 | 3.5 | 0.00 | 0.00 | 0.00 | 31 | 1014.7 |
| 20260906204841 | 90 | 77 | 1.7 | 4.3 | 0.00 | 0.00 | 0.00 | 31 | 1015.1 |
| 20260906204340 | 90 | 31 | 0.9 | 2.6 | 0.00 | 0.00 | 0.00 | 31 | 1014.8 |
| 20260906203839 | 90 | 33 | 2.6 | 2.6 | 0.00 | 0.00 | 0.00 | 31 | 1015.1 |
| 20260906203335 | 89 | 4 | 1.7 | 2.6 | 0.00 | 0.00 | 0.00 | 31 | 1015.3 |
| 20260906202832 | 90 | 105 | 0.9 | 3.5 | 0.00 | 0.00 | 0.00 | 31 | 1015.2 |
| 20260906202331 | 90 | 28 | 0.9 | 1.7 | 0.00 | 0.00 | 0.00 | 31 | 1015.2 |
| 20260906201831 | 89 | 0 | 0.9 | 2.6 | 0.00 | 0.00 | 0.00 | 32 | 1015.3 |
| 20260906201326 | 89 | 210 | 0.0 | 3.5 | 0.00 | 0.00 | 0.00 | 32 | 1015.5 |
| 20260906200821 | 89 | 3 | 1.7 | 2.6 | 0.00 | 0.00 | 0.00 | 31 | 1015.3 |
| 20260906200318 | 89 | 13 | 1.7 | 4.3 | 0.00 | 0.00 | 0.00 | 32 | 1015.4 |
| 20260906195812 | 88 | 335 | 0.9 | 2.6 | 0.00 | 0.00 | 0.00 | 32 | 1015.3 |
| 20260906195309 | 87 | 248 | 0.9 | 1.7 | 0.00 | 0.00 | 0.00 | 34 | 1015.4 |
| 20260906194805 | 86 | 8 | 1.7 | 3.5 | 0.00 | 0.00 | 0.00 | 35 | 1015.5 |
| 20260906194301 | 86 | 13 | 2.6 | 5.2 | 0.00 | 0.00 | 0.00 | 34 | 1015.7 |
| 20260906193801 | 86 | 9 | 3.5 | 3.5 | 0.00 | 0.00 | 0.00 | 34 | 1015.9 |
| 20260906193255 | 86 | 27 | 0.0 | 3.5 | 0.00 | 0.00 | 0.00 | 34 | 1015.9 |
| 20260906192752 | 85 | 68 | 1.7 | 3.5 | 0.00 | 0.00 | 0.00 | 35 | 1016.0 |
| 20260906192246 | 86 | 8 | 0.0 | 3.5 | 0.00 | 0.00 | 0.00 | 34 | 1016.1 |
| 20260906191745 | 86 | 19 | 1.7 | 2.6 | 0.00 | 0.00 | 0.00 | 35 | 1016.5 |
| 20260906191240 | 85 | 212 | 0.0 | 1.7 | 0.00 | 0.00 | 0.00 | 35 | 1016.0 |
| 20260906190740 | 85 | 9 | 0.0 | 2.6 | 0.00 | 0.00 | 0.00 | 36 | 1016.2 |
| 20260906190234 | 84 | 43 | 1.7 | 1.7 | 0.00 | 0.00 | 0.00 | 36 | 1016.5 |
| 20260906185733 | 84 | 44 | 1.7 | 1.7 | 0.00 | 0.00 | 0.00 | 37 | 1016.6 |
| 20260906185232 | 83 | 22 | 0.9 | 2.6 | 0.00 | 0.00 | 0.00 | 37 | 1016.6 |
| 20260906184727 | 83 | 8 | 0.9 | 2.6 | 0.00 | 0.00 | 0.00 | 38 | 1016.8 |
| 20260906184222 | 82 | 114 | 0.9 | 1.7 | 0.00 | 0.00 | 0.00 | 37 | 1017.0 |
| 20260906183718 | 82 | 311 | 1.7 | 1.7 | 0.00 | 0.00 | 0.00 | 38 | 1016.8 |
| 20260906183215 | 82 | 24 | 0.0 | 1.7 | 0.00 | 0.00 | 0.00 | 37 | 1017.2 |
| 20260906182714 | 81 | 148 | 0.9 | 2.6 | 0.00 | 0.00 | 0.00 | 38 | 1017.3 |
| 20260906182210 | 80 | 100 | 0.0 | 1.7 | 0.00 | 0.00 | 0.00 | 40 | 1017.6 |
| 20260906181705 | 80 | 140 | 0.9 | 1.7 | 0.00 | 0.00 | 0.00 | 42 | 1017.4 |
| 20260906181202 | 79 | 46 | 0.9 | 3.5 | 0.00 | 0.00 | 0.00 | 42 | 1017.8 |
| 20260906180701 | 79 | 36 | 1.7 | 2.6 | 0.00 | 0.00 | 0.00 | 43 | 1017.9 |
| 20260906180156 | 78 | 84 | 0.0 | 1.7 | 0.00 | 0.00 | 0.00 | 43 | 1018.0 |
| 20260906175654 | 78 | 41 | 1.7 | 1.7 | 0.00 | 0.00 | 0.00 | 44 | 1018.1 |
| 20260906175150 | 77 | 53 | 0.0 | 1.7 | 0.00 | 0.00 | 0.00 | 47 | 1018.0 |
| 20260906174648 | 77 | 312 | 1.7 | 3.5 | 0.00 | 0.00 | 0.00 | 49 | 1018.3 |
| 20260906174143 | 76 | 38 | 0.0 | 2.6 | 0.00 | 0.00 | 0.00 | 49 | 1018.4 |
| 20260906173638 | 75 | 23 | 2.6 | 2.6 | 0.00 | 0.00 | 0.00 | 51 | 1018.4 |
| 20260906173134 | 75 | 26 | 1.7 | 3.5 | 0.00 | 0.00 | 0.00 | 52 | 1018.6 |
| 20260906172633 | 75 | 84 | 0.9 | 3.5 | 0.00 | 0.00 | 0.00 | 50 | 1018.5 |
| 20260906172129 | 75 | 40 | 2.6 | 3.5 | 0.00 | 0.00 | 0.00 | 51 | 1018.7 |
| 20260906171628 | 75 | 60 | 0.0 | 1.7 | 0.00 | 0.00 | 0.00 | 50 | 1018.7 |
| 20260906171124 | 75 | 19 | 0.0 | 3.5 | 0.00 | 0.00 | 0.00 | 51 | 1018.6 |
| 20260906170620 | 74 | 139 | 0.0 | 2.6 | 0.00 | 0.00 | 0.00 | 51 | 1018.7 |
| 20260906170119 | 74 | 128 | 0.9 | 3.5 | 0.00 | 0.00 | 0.00 | 52 | 1019.0 |
| 20260906165616 | 74 | 59 | 1.7 | 2.6 | 0.00 | 0.00 | 0.00 | 52 | 1019.0 |
| 20260906165111 | 73 | 60 | 0.9 | 1.7 | 0.00 | 0.00 | 0.00 | 54 | 1018.9 |
| 20260906164610 | 73 | 160 | 0.0 | 3.5 | 0.00 | 0.00 | 0.00 | 54 | 1019.0 |
| 20260906164106 | 73 | 150 | 1.7 | 2.6 | 0.00 | 0.00 | 0.00 | 55 | 1019.0 |
| 20260906163601 | 73 | 118 | 1.7 | 1.7 | 0.00 | 0.00 | 0.00 | 57 | 1019.1 |
| 20260906163057 | 72 | 170 | 0.0 | 3.5 | 0.00 | 0.00 | 0.00 | 55 | 1019.1 |
| 20260906162554 | 72 | 66 | 1.7 | 1.7 | 0.00 | 0.00 | 0.00 | 58 | 1019.1 |
| 20260906162049 | 71 | 45 | 2.6 | 3.5 | 0.00 | 0.00 | 0.00 | 60 | 1019.1 |
| 20260906161544 | 71 | 159 | 2.6 | 2.6 | 0.00 | 0.00 | 0.00 | 60 | 1019.2 |
| 20260906161042 | 71 | 150 | 2.6 | 3.5 | 0.00 | 0.00 | 0.00 | 60 | 1019.0 |
| 20260906160542 | 71 | 144 | 0.9 | 3.5 | 0.00 | 0.00 | 0.00 | 61 | 1019.2 |
| 20260906160040 | 71 | 95 | 0.9 | 2.6 | 0.00 | 0.00 | 0.00 | 63 | 1018.9 |
| 20260906155538 | 70 | 131 | 1.7 | 2.6 | 0.00 | 0.00 | 0.00 | 63 | 1019.0 |
| 20260906155034 | 69 | 51 | 1.7 | 2.6 | 0.00 | 0.00 | 0.00 | 65 | 1019.2 |
| 20260906154529 | 69 | 53 | 1.7 | 2.6 | 0.00 | 0.00 | 0.00 | 66 | 1019.2 |
| 20260906154028 | 69 | 60 | 2.6 | 3.5 | 0.00 | 0.00 | 0.00 | 67 | 1019.1 |
| 20260906153527 | 69 | 34 | 1.7 | 2.6 | 0.00 | 0.00 | 0.00 | 67 | 1019.2 |
| 20260906153022 | 69 | 105 | 1.7 | 4.3 | 0.00 | 0.00 | 0.00 | 67 | 1019.0 |
| 20260906152516 | 68 | 36 | 2.6 | 2.6 | 0.00 | 0.00 | 0.00 | 68 | 1019.1 |
| 20260906152015 | 68 | 38 | 1.7 | 2.6 | 0.00 | 0.00 | 0.00 | 68 | 1019.1 |
| 20260906151512 | 68 | 61 | 1.7 | 3.5 | 0.00 | 0.00 | 0.00 | 68 | 1019.1 |
| 20260906151007 | 68 | 130 | 1.7 | 1.7 | 0.00 | 0.00 | 0.00 | 69 | 1019.1 |
| 20260906150503 | 67 | 117 | 1.7 | 3.5 | 0.00 | 0.00 | 0.00 | 70 | 1019.1 |
| 20260906150002 | 67 | 80 | 1.7 | 3.5 | 0.00 | 0.00 | 0.00 | 69 | 1019.1 |
| 20260906145502 | 67 | 147 | 1.7 | 2.6 | 0.00 | 0.00 | 0.00 | 69 | 1019.2 |
| 20260906145001 | 67 | 69 | 1.7 | 3.5 | 0.00 | 0.00 | 0.00 | 70 | 1019.1 |
| 20260906144456 | 66 | 45 | 1.7 | 4.3 | 0.00 | 0.00 | 0.00 | 71 | 1019.2 |
| 20260906143952 | 66 | 91 | 1.7 | 2.6 | 0.00 | 0.00 | 0.00 | 72 | 1019.1 |
| 20260906143447 | 66 | 167 | 1.7 | 3.5 | 0.00 | 0.00 | 0.00 | 72 | 1019.0 |
| 20260906142943 | 66 | 159 | 1.7 | 2.6 | 0.00 | 0.00 | 0.00 | 71 | 1019.1 |
| 20260906142442 | 66 | 80 | 1.7 | 3.5 | 0.00 | 0.00 | 0.00 | 73 | 1019.3 |
| 20260906141938 | 65 | 132 | 2.6 | 3.5 | 0.00 | 0.00 | 0.00 | 73 | 1019.1 |
| 20260906141432 | 65 | 119 | 1.7 | 2.6 | 0.00 | 0.00 | 0.00 | 73 | 1019.2 |
| 20260906140932 | 65 | 76 | 0.9 | 3.5 | 0.00 | 0.00 | 0.00 | 73 | 1019.3 |
| 20260906140426 | 65 | 81 | 1.7 | 3.5 | 0.00 | 0.00 | 0.00 | 73 | 1019.3 |
| 20260906135924 | 64 | 85 | 1.7 | 4.3 | 0.00 | 0.00 | 0.00 | 73 | 1019.1 |
| 20260906135424 | 64 | 148 | 1.7 | 2.6 | 0.00 | 0.00 | 0.00 | 71 | 1019.1 |
| 20260906134920 | 64 | 110 | 1.7 | 2.6 | 0.00 | 0.00 | 0.00 | 72 | 1019.1 |
| 20260906134415 | 64 | 54 | 1.7 | 2.6 | 0.00 | 0.00 | 0.00 | 72 | 1019.0 |
| 20260906133909 | 64 | 157 | 1.7 | 1.7 | 0.00 | 0.00 | 0.00 | 74 | 1019.1 |
| 20260906133405 | 64 | 106 | 1.7 | 2.6 | 0.00 | 0.00 | 0.00 | 74 | 1018.9 |
| 20260906132901 | 63 | 135 | 1.7 | 2.6 | 0.00 | 0.00 | 0.00 | 75 | 1018.7 |
| 20260906132355 | 63 | 157 | 2.6 | 3.5 | 0.00 | 0.00 | 0.00 | 76 | 1018.5 |
| 20260906131851 | 62 | 161 | 2.6 | 3.5 | 0.00 | 0.00 | 0.00 | 78 | 1018.6 |
| 20260906131347 | 61 | 157 | 2.6 | 2.6 | 0.00 | 0.00 | 0.00 | 74 | 1018.7 |
| 20260906130842 | 61 | 164 | 3.5 | 3.5 | 0.00 | 0.00 | 0.00 | 73 | 1018.9 |
| 20260906130342 | 61 | 164 | 2.6 | 3.5 | 0.00 | 0.00 | 0.00 | 73 | 1018.7 |
| 20260906125841 | 61 | 155 | 2.6 | 3.5 | 0.00 | 0.00 | 0.00 | 73 | 1018.7 |
| 20260906125338 | 61 | 163 | 2.6 | 3.5 | 0.00 | 0.00 | 0.00 | 72 | 1018.9 |
| 20260906124833 | 61 | 116 | 1.7 | 2.6 | 0.00 | 0.00 | 0.00 | 73 | 1018.7 |
| 20260906124329 | 61 | 155 | 1.7 | 2.6 | 0.00 | 0.00 | 0.00 | 73 | 1018.5 |
| 20260906123828 | 61 | 127 | 0.9 | 2.6 | 0.00 | 0.00 | 0.00 | 73 | 1018.5 |
| 20260906123323 | 61 | 149 | 1.7 | 2.6 | 0.00 | 0.00 | 0.00 | 74 | 1018.6 |
| 20260906122823 | 61 | 130 | 1.7 | 1.7 | 0.00 | 0.00 | 0.00 | 73 | 1018.4 |
| 20260906122318 | 61 | 131 | 1.7 | 2.6 | 0.00 | 0.00 | 0.00 | 74 | 1018.6 |
| 20260906121815 | 61 | 129 | 1.7 | 2.6 | 0.00 | 0.00 | 0.00 | 74 | 1018.3 |
| 20260906121311 | 60 | 122 | 1.7 | 2.6 | 0.00 | 0.00 | 0.00 | 75 | 1018.3 |
| 20260906120807 | 60 | 111 | 1.7 | 1.7 | 0.00 | 0.00 | 0.00 | 75 | 1018.3 |
| 20260906120303 | 60 | 148 | 1.7 | 2.6 | 0.00 | 0.00 | 0.00 | 75 | 1018.3 |
| 20260906115758 | 60 | 139 | 1.7 | 2.6 | 0.00 | 0.00 | 0.00 | 75 | 1018.3 |
| 20260906115253 | 60 | 121 | 1.7 | 2.6 | 0.00 | 0.00 | 0.00 | 74 | 1018.3 |
| 20260906114753 | 61 | 132 | 1.7 | 2.6 | 0.00 | 0.00 | 0.00 | 74 | 1018.1 |
| 20260906114248 | 61 | 135 | 2.6 | 2.6 | 0.00 | 0.00 | 0.00 | 73 | 1018.4 |
| 20260906113743 | 61 | 152 | 1.7 | 2.6 | 0.00 | 0.00 | 0.00 | 72 | 1018.4 |
| 20260906113243 | 61 | 134 | 1.7 | 2.6 | 0.00 | 0.00 | 0.00 | 73 | 1018.1 |
| 20260906112742 | 61 | 150 | 1.7 | 2.6 | 0.00 | 0.00 | 0.00 | 72 | 1018.3 |
| 20260906112239 | 61 | 135 | 1.7 | 2.6 | 0.00 | 0.00 | 0.00 | 72 | 1018.1 |
| 20260906111738 | 61 | 148 | 1.7 | 2.6 | 0.00 | 0.00 | 0.00 | 71 | 1018.1 |
| 20260906111233 | 62 | 133 | 1.7 | 2.6 | 0.00 | 0.00 | 0.00 | 70 | 1018.3 |
| 20260906110728 | 62 | 149 | 2.6 | 3.5 | 0.00 | 0.00 | 0.00 | 70 | 1018.3 |
| 20260906110224 | 62 | 158 | 2.6 | 3.5 | 0.00 | 0.00 | 0.00 | 70 | 1018.1 |
| 20260906105722 | 62 | 136 | 1.7 | 2.6 | 0.00 | 0.00 | 0.00 | 69 | 1018.3 |
| 20260906105219 | 62 | 138 | 1.7 | 2.6 | 0.00 | 0.00 | 0.00 | 69 | 1018.3 |
| 20260906104719 | 62 | 172 | 2.6 | 3.5 | 0.00 | 0.00 | 0.00 | 70 | 1018.4 |
| 20260906104218 | 62 | 154 | 1.7 | 3.5 | 0.00 | 0.00 | 0.00 | 70 | 1018.0 |
| 20260906103715 | 62 | 140 | 2.6 | 2.6 | 0.00 | 0.00 | 0.00 | 70 | 1018.0 |
| 20260906103211 | 62 | 149 | 1.7 | 2.6 | 0.00 | 0.00 | 0.00 | 71 | 1017.9 |
| 20260906102706 | 62 | 147 | 1.7 | 2.6 | 0.00 | 0.00 | 0.00 | 69 | 1017.9 |
| 20260906102206 | 63 | 137 | 1.7 | 2.6 | 0.00 | 0.00 | 0.00 | 69 | 1017.6 |
| 20260906101706 | 63 | 98 | 0.9 | 2.6 | 0.00 | 0.00 | 0.00 | 69 | 1017.9 |
| 20260906101201 | 63 | 123 | 1.7 | 2.6 | 0.00 | 0.00 | 0.00 | 68 | 1017.8 |
| 20260906100656 | 63 | 127 | 2.6 | 2.6 | 0.00 | 0.00 | 0.00 | 70 | 1018.0 |
| 20260906100156 | 63 | 161 | 1.7 | 2.6 | 0.00 | 0.00 | 0.00 | 70 | 1018.0 |
| 20260906095651 | 63 | 122 | 1.7 | 3.5 | 0.00 | 0.00 | 0.00 | 70 | 1017.8 |
| 20260906095146 | 63 | 124 | 1.7 | 2.6 | 0.00 | 0.00 | 0.00 | 68 | 1017.8 |
| 20260906094645 | 63 | 145 | 1.7 | 2.6 | 0.00 | 0.00 | 0.00 | 68 | 1017.8 |
| 20260906094141 | 63 | 150 | 1.7 | 2.6 | 0.00 | 0.00 | 0.00 | 68 | 1017.8 |
| 20260906093638 | 64 | 157 | 1.7 | 2.6 | 0.00 | 0.00 | 0.00 | 68 | 1017.7 |
| 20260906093137 | 64 | 132 | 1.7 | 2.6 | 0.00 | 0.00 | 0.00 | 68 | 1017.9 |
| 20260906092632 | 65 | 151 | 1.7 | 2.6 | 0.00 | 0.00 | 0.00 | 66 | 1017.8 |
| 20260906092127 | 65 | 147 | 1.7 | 3.5 | 0.00 | 0.00 | 0.00 | 64 | 1017.8 |
| 20260906091623 | 65 | 173 | 1.7 | 2.6 | 0.00 | 0.00 | 0.00 | 64 | 1017.8 |
| 20260906091120 | 65 | 158 | 1.7 | 2.6 | 0.00 | 0.00 | 0.00 | 62 | 1017.7 |
| 20260906090615 | 65 | 145 | 1.7 | 2.6 | 0.00 | 0.00 | 0.00 | 62 | 1017.7 |
| 20260906090114 | 66 | 173 | 1.7 | 3.5 | 0.00 | 0.00 | 0.00 | 61 | 1017.7 |
| 20260906085613 | 66 | 164 | 2.6 | 3.5 | 0.00 | 0.00 | 0.00 | 61 | 1017.7 |
| 20260906085108 | 65 | 165 | 1.7 | 3.5 | 0.00 | 0.00 | 0.00 | 63 | 1017.7 |
| 20260906084603 | 64 | 142 | 2.6 | 2.6 | 0.00 | 0.00 | 0.00 | 69 | 1017.8 |
| 20260906084101 | 65 | 126 | 1.7 | 2.6 | 0.00 | 0.00 | 0.00 | 68 | 1017.8 |
| 20260906083557 | 64 | 104 | 0.0 | 1.7 | 0.00 | 0.00 | 0.00 | 71 | 1017.6 |
| 20260906083056 | 65 | 150 | 1.7 | 1.7 | 0.00 | 0.00 | 0.00 | 71 | 1017.7 |
| 20260906082552 | 65 | 137 | 1.7 | 1.7 | 0.00 | 0.00 | 0.00 | 69 | 1017.8 |
| 20260906082048 | 65 | 108 | 1.7 | 1.7 | 0.00 | 0.00 | 0.00 | 69 | 1017.7 |
| 20260906081543 | 66 | 150 | 1.7 | 1.7 | 0.00 | 0.00 | 0.00 | 68 | 1017.9 |
| 20260906081039 | 66 | 145 | 1.7 | 1.7 | 0.00 | 0.00 | 0.00 | 67 | 1017.7 |
| 20260906080535 | 66 | 82 | 0.9 | 1.7 | 0.00 | 0.00 | 0.00 | 67 | 1018.1 |
| 20260906080031 | 67 | 121 | 0.0 | 1.7 | 0.00 | 0.00 | 0.00 | 64 | 1018.0 |
| 20260906075531 | 67 | 162 | 1.7 | 2.6 | 0.00 | 0.00 | 0.00 | 61 | 1017.8 |
| 20260906075026 | 68 | 178 | 2.6 | 2.6 | 0.00 | 0.00 | 0.00 | 60 | 1017.8 |
| 20260906074521 | 68 | 180 | 2.6 | 3.5 | 0.00 | 0.00 | 0.00 | 59 | 1017.8 |
| 20260906074019 | 67 | 171 | 1.7 | 3.5 | 0.00 | 0.00 | 0.00 | 61 | 1017.8 |
| 20260906073514 | 67 | 161 | 1.7 | 2.6 | 0.00 | 0.00 | 0.00 | 63 | 1017.6 |
| 20260906073010 | 67 | 167 | 2.6 | 2.6 | 0.00 | 0.00 | 0.00 | 65 | 1017.6 |
| 20260906072505 | 67 | 176 | 3.5 | 4.3 | 0.00 | 0.00 | 0.00 | 64 | 1017.4 |
| 20260906072001 | 67 | 135 | 1.7 | 3.5 | 0.00 | 0.00 | 0.00 | 63 | 1017.4 |
| 20260906071457 | 67 | 153 | 2.6 | 2.6 | 0.00 | 0.00 | 0.00 | 63 | 1017.2 |
| 20260906070952 | 67 | 162 | 1.7 | 2.6 | 0.00 | 0.00 | 0.00 | 63 | 1017.3 |
| 20260906070448 | 67 | 109 | 1.7 | 1.7 | 0.00 | 0.00 | 0.00 | 63 | 1017.3 |
| 20260906065943 | 68 | 141 | 0.9 | 1.7 | 0.00 | 0.00 | 0.00 | 61 | 1017.3 |
| 20260906065437 | 68 | 154 | 1.7 | 2.6 | 0.00 | 0.00 | 0.00 | 62 | 1017.1 |
| 20260906064933 | 69 | 159 | 0.9 | 3.5 | 0.00 | 0.00 | 0.00 | 60 | 1017.4 |
| 20260906064429 | 69 | 135 | 1.7 | 2.6 | 0.00 | 0.00 | 0.00 | 59 | 1017.4 |
| 20260906063924 | 69 | 141 | 2.6 | 3.5 | 0.00 | 0.00 | 0.00 | 58 | 1017.3 |
| 20260906063419 | 69 | 105 | 0.9 | 2.6 | 0.00 | 0.00 | 0.00 | 56 | 1017.3 |
| 20260906062914 | 68 | 59 | 1.7 | 3.5 | 0.00 | 0.00 | 0.00 | 60 | 1017.2 |
| 20260906062414 | 69 | 37 | 4.3 | 4.3 | 0.00 | 0.00 | 0.00 | 60 | 1017.1 |
| 20260906061909 | 69 | 0 | 0.0 | 2.6 | 0.00 | 0.00 | 0.00 | 60 | 1017.2 |
| 20260906061406 | 70 | 44 | 2.6 | 3.5 | 0.00 | 0.00 | 0.00 | 57 | 1017.2 |
| 20260906060900 | 69 | 56 | 0.9 | 3.5 | 0.00 | 0.00 | 0.00 | 55 | 1017.2 |
| 20260906060358 | 69 | 41 | 1.7 | 7.0 | 0.02 | 0.00 | 0.00 | 56 | 1017.6 |
| 20260906055853 | 67 | 33 | 5.2 | 7.8 | 0.19 | 0.13 | 0.13 | 58 | 1017.3 |
| 20260906055349 | 64 | 27 | 5.2 | 10.4 | 0.61 | 0.13 | 0.13 | 72 | 1017.7 |
| 20260906054844 | 65 | 34 | 7.8 | 9.6 | 0.47 | 0.10 | 0.10 | 72 | 1017.7 |
| 20260906054338 | 68 | 48 | 2.6 | 7.0 | 0.09 | 0.02 | 0.02 | 64 | 1017.7 |
| 20260906053835 | 69 | 117 | 1.7 | 5.2 | 0.09 | 0.02 | 0.02 | 65 | 1018.1 |
| 20260906053331 | 73 | 198 | 3.5 | 8.7 | 0.05 | 0.01 | 0.01 | 50 | 1018.0 |
| 20260906052826 | 77 | 190 | 2.6 | 4.3 | 0.02 | 0.00 | 0.00 | 41 | 1018.0 |
| 20260906052322 | 77 | 181 | 1.7 | 1.7 | 0.00 | 0.00 | 0.00 | 35 | 1017.9 |
| 20260906051819 | 78 | 165 | 0.0 | 2.6 | 0.00 | 0.00 | 0.00 | 33 | 1017.6 |
| 20260906051318 | 78 | 96 | 0.0 | 3.5 | 0.00 | 0.00 | 0.00 | 33 | 1017.7 |
| 20260906050814 | 77 | 35 | 0.0 | 3.5 | 0.00 | 0.00 | 0.00 | 33 | 1017.9 |
| 20260906050309 | 77 | 145 | 0.0 | 0.9 | 0.00 | 0.00 | 0.00 | 33 | 1017.9 |
| 20260906045808 | 77 | 154 | 0.0 | 2.6 | 0.00 | 0.00 | 0.00 | 33 | 1017.8 |
| 20260906045305 | 77 | 23 | 0.0 | 1.7 | 0.00 | 0.00 | 0.00 | 33 | 1018.0 |
| 20260906044759 | 77 | 139 | 1.7 | 2.6 | 0.00 | 0.00 | 0.00 | 34 | 1017.9 |
| 20260906044253 | 78 | 144 | 0.0 | 1.7 | 0.00 | 0.00 | 0.00 | 32 | 1018.0 |
| 20260906043749 | 78 | 171 | 1.7 | 1.7 | 0.00 | 0.00 | 0.00 | 32 | 1018.0 |
| 20260906043245 | 78 | 105 | 0.0 | 1.7 | 0.00 | 0.00 | 0.00 | 31 | 1018.0 |
| 20260906042745 | 78 | 60 | 0.0 | 1.7 | 0.00 | 0.00 | 0.00 | 32 | 1018.0 |
| 20260906042244 | 79 | 135 | 0.0 | 1.7 | 0.00 | 0.00 | 0.00 | 32 | 1018.1 |
| 20260906041739 | 80 | 174 | 0.9 | 1.7 | 0.00 | 0.00 | 0.00 | 31 | 1018.0 |
| 20260906041235 | 80 | 75 | 0.0 | 1.7 | 0.00 | 0.00 | 0.00 | 30 | 1017.9 |
| 20260906040731 | 80 | 32 | 0.0 | 1.7 | 0.00 | 0.00 | 0.00 | 30 | 1017.9 |
| 20260906040231 | 80 | 282 | 0.0 | 1.7 | 0.00 | 0.00 | 0.00 | 30 | 1017.9 |
| 20260906035726 | 79 | 310 | 0.0 | 1.7 | 0.00 | 0.00 | 0.00 | 31 | 1017.9 |
| 20260906035222 | 79 | 142 | 1.7 | 2.6 | 0.00 | 0.00 | 0.00 | 31 | 1017.9 |
| 20260906034722 | 78 | 39 | 1.7 | 3.5 | 0.00 | 0.00 | 0.00 | 31 | 1017.9 |
| 20260906034217 | 79 | 199 | 3.5 | 3.5 | 0.00 | 0.00 | 0.00 | 32 | 1018.0 |
| 20260906033713 | 79 | 258 | 0.0 | 7.0 | 0.00 | 0.00 | 0.00 | 32 | 1017.8 |
| 20260906033212 | 80 | 198 | 2.6 | 4.3 | 0.00 | 0.00 | 0.00 | 30 | 1017.4 |
| 20260906032709 | 80 | 5 | 0.0 | 0.9 | 0.00 | 0.00 | 0.00 | 29 | 1017.1 |
| 20260906032209 | 80 | 18 | 0.0 | 2.6 | 0.00 | 0.00 | 0.00 | 29 | 1017.0 |
| 20260906031704 | 81 | 105 | 0.9 | 2.6 | 0.00 | 0.00 | 0.00 | 29 | 1016.8 |
| 20260906031159 | 81 | 47 | 0.9 | 3.5 | 0.00 | 0.00 | 0.00 | 28 | 1016.7 |
| 20260906030700 | 81 | 62 | 0.0 | 1.7 | 0.00 | 0.00 | 0.00 | 28 | 1016.7 |
| 20260906030155 | 81 | 121 | 0.0 | 2.6 | 0.00 | 0.00 | 0.00 | 28 | 1016.4 |
| 20260906025654 | 81 | 19 | 0.0 | 2.6 | 0.00 | 0.00 | 0.00 | 28 | 1016.5 |
| 20260906025153 | 82 | 20 | 1.7 | 3.5 | 0.00 | 0.00 | 0.00 | 27 | 1016.4 |
| 20260906024648 | 82 | 54 | 0.0 | 2.6 | 0.00 | 0.00 | 0.00 | 27 | 1016.5 |
| 20260906024147 | 82 | 14 | 1.7 | 3.5 | 0.00 | 0.00 | 0.00 | 27 | 1016.5 |
| 20260906023643 | 82 | 24 | 2.6 | 3.5 | 0.00 | 0.00 | 0.00 | 27 | 1016.4 |
| 20260906023143 | 83 | 21 | 1.7 | 4.3 | 0.00 | 0.00 | 0.00 | 28 | 1016.5 |
| 20260906022638 | 83 | 28 | 0.0 | 1.7 | 0.00 | 0.00 | 0.00 | 28 | 1016.2 |
| 20260906022134 | 83 | 21 | 1.7 | 1.7 | 0.00 | 0.00 | 0.00 | 28 | 1016.1 |
| 20260906021630 | 82 | 0 | 3.5 | 3.5 | 0.00 | 0.00 | 0.00 | 28 | 1016.2 |
| 20260906021129 | 82 | 15 | 0.9 | 1.7 | 0.00 | 0.00 | 0.00 | 28 | 1016.2 |
| 20260906020628 | 82 | 181 | 1.7 | 2.6 | 0.00 | 0.00 | 0.00 | 28 | 1016.2 |
| 20260906020123 | 82 | 164 | 0.9 | 2.6 | 0.00 | 0.00 | 0.00 | 28 | 1016.0 |
| 20260906015618 | 82 | 173 | 1.7 | 3.5 | 0.00 | 0.00 | 0.00 | 28 | 1015.9 |
| 20260906015117 | 83 | 184 | 1.7 | 4.3 | 0.00 | 0.00 | 0.00 | 28 | 1015.8 |
| 20260906014611 | 84 | 181 | 2.6 | 3.5 | 0.00 | 0.00 | 0.00 | 27 | 1015.7 |
| 20260906014108 | 84 | 199 | 3.5 | 3.5 | 0.00 | 0.00 | 0.00 | 27 | 1015.8 |
| 20260906013603 | 85 | 181 | 1.7 | 3.5 | 0.00 | 0.00 | 0.00 | 27 | 1015.7 |
| 20260906013059 | 86 | 193 | 4.3 | 4.3 | 0.00 | 0.00 | 0.00 | 25 | 1015.4 |
| 20260906012559 | 86 | 197 | 4.3 | 4.3 | 0.00 | 0.00 | 0.00 | 25 | 1015.7 |
| 20260906012059 | 87 | 185 | 2.6 | 4.3 | 0.00 | 0.00 | 0.00 | 25 | 1015.5 |
| 20260906011555 | 88 | 193 | 2.6 | 2.6 | 0.00 | 0.00 | 0.00 | 24 | 1015.5 |
| 20260906011054 | 88 | 167 | 0.0 | 3.5 | 0.00 | 0.00 | 0.00 | 24 | 1015.3 |
| 20260906010550 | 88 | 191 | 3.5 | 3.5 | 0.00 | 0.00 | 0.00 | 24 | 1015.5 |
| 20260906010046 | 89 | 193 | 2.6 | 3.5 | 0.00 | 0.00 | 0.00 | 24 | 1015.4 |
| 20260906005545 | 89 | 195 | 1.7 | 4.3 | 0.00 | 0.00 | 0.00 | 23 | 1015.4 |
| 20260906005044 | 91 | 197 | 5.2 | 5.2 | 0.00 | 0.00 | 0.00 | 23 | 1015.5 |
| 20260906004544 | 91 | 203 | 1.7 | 4.3 | 0.00 | 0.00 | 0.00 | 22 | 1015.4 |
| 20260906004039 | 92 | 212 | 3.5 | 5.2 | 0.00 | 0.00 | 0.00 | 21 | 1015.5 |
| 20260906003534 | 93 | 216 | 0.9 | 4.3 | 0.00 | 0.00 | 0.00 | 21 | 1015.7 |
| 20260906003031 | 94 | 191 | 3.5 | 6.1 | 0.00 | 0.00 | 0.00 | 20 | 1015.5 |
| 20260906002531 | 95 | 190 | 4.3 | 6.1 | 0.00 | 0.00 | 0.00 | 19 | 1015.4 |
| 20260906002025 | 94 | 195 | 1.7 | 5.2 | 0.00 | 0.00 | 0.00 | 20 | 1015.3 |
| 20260906001521 | 97 | 194 | 2.6 | 5.2 | 0.00 | 0.00 | 0.00 | 17 | 1015.4 |
| 20260906001015 | 96 | 193 | 0.9 | 4.3 | 0.00 | 0.00 | 0.00 | 18 | 1015.4 |
| 20260906000511 | 97 | 198 | 3.5 | 5.2 | 0.00 | 0.00 | 0.00 | 17 | 1015.2 |
| 20260906000006 | 98 | 202 | 1.7 | 5.2 | 0.00 | 0.00 | 0.00 | 17 | 1015.2 |
| 20260905235505 | 100 | 194 | 1.7 | 4.3 | 0.00 | 0.00 | 0.00 | 16 | 1015.4 |
| 20260905235000 | 97 | 208 | 3.5 | 5.2 | 0.00 | 0.00 | 0.00 | 17 | 1015.2 |
| 20260905234456 | 96 | 194 | 2.6 | 7.8 | 0.00 | 0.00 | 0.00 | 17 | 1015.2 |
| 20260905233955 | 99 | 204 | 1.7 | 7.8 | 0.00 | 0.00 | 0.00 | 16 | 1015.4 |
| 20260905233452 | 103 | 201 | 1.7 | 2.6 | 0.00 | 0.00 | 0.00 | 15 | 1015.3 |
| 20260905232950 | 101 | 268 | 0.0 | 5.2 | 0.00 | 0.00 | 0.00 | 16 | 1015.3 |
| 20260905232447 | 100 | 202 | 3.5 | 5.2 | 0.00 | 0.00 | 0.00 | 16 | 1015.3 |
| 20260905231942 | 102 | 213 | 3.5 | 6.1 | 0.00 | 0.00 | 0.00 | 15 | 1015.2 |
| 20260905231438 | 102 | 219 | 3.5 | 5.2 | 0.00 | 0.00 | 0.00 | 15 | 1015.3 |
| 20260905230934 | 102 | 196 | 2.6 | 5.2 | 0.00 | 0.00 | 0.00 | 16 | 1015.2 |
| 20260905230432 | 103 | 114 | 1.7 | 5.2 | 0.00 | 0.00 | 0.00 | 15 | 1015.2 |
| 20260905225931 | 102 | 196 | 1.7 | 5.2 | 0.00 | 0.00 | 0.00 | 17 | 1015.4 |
| 20260905225426 | 102 | 199 | 1.7 | 5.2 | 0.00 | 0.00 | 0.00 | 16 | 1015.2 |
| 20260905224921 | 99 | 237 | 0.0 | 2.6 | 0.00 | 0.00 | 0.00 | 16 | 1015.2 |
| 20260905224417 | 99 | 199 | 3.5 | 5.2 | 0.00 | 0.00 | 0.00 | 16 | 1015.1 |
| 20260905223916 | 101 | 205 | 1.7 | 1.7 | 0.00 | 0.00 | 0.00 | 16 | 1014.9 |
| 20260905223415 | 99 | 277 | 0.0 | 2.6 | 0.00 | 0.00 | 0.00 | 17 | 1015.2 |
| 20260905222914 | 97 | 257 | 1.7 | 2.6 | 0.00 | 0.00 | 0.00 | 17 | 1015.3 |
| 20260905222414 | 96 | 321 | 0.0 | 2.6 | 0.00 | 0.00 | 0.00 | 17 | 1015.3 |
| 20260905221910 | 96 | 14 | 3.5 | 4.3 | 0.00 | 0.00 | 0.00 | 17 | 1015.3 |
| 20260905221406 | 96 | 194 | 0.9 | 3.5 | 0.00 | 0.00 | 0.00 | 17 | 1015.3 |
| 20260905220902 | 95 | 175 | 3.5 | 7.8 | 0.00 | 0.00 | 0.00 | 17 | 1015.3 |
| 20260905220358 | 95 | 5 | 3.5 | 3.5 | 0.00 | 0.00 | 0.00 | 17 | 1015.3 |
| 20260905215857 | 93 | 210 | 0.9 | 2.6 | 0.00 | 0.00 | 0.00 | 19 | 1015.3 |
| 20260905215353 | 91 | 353 | 3.5 | 7.8 | 0.00 | 0.00 | 0.00 | 19 | 1015.4 |
| 20260905214849 | 92 | 358 | 3.5 | 4.3 | 0.00 | 0.00 | 0.00 | 19 | 1015.4 |